Other Public Products
Issued by NWS Grand Forks, ND

Home | Current Version | Previous Version | Graphics & Text | Print | Product List | Glossary On
Versions: 1 2 3 4 5 6 7 8 9 10 11 12 13 14 15 16 17 18 19 20 21 22 23 24 25 26 27 28 29 30 31 32 33 34 35 36 37 38 39 40 41 42 43 44 45 46 47 48 49 50
000
FPUS83 KFGF 031610
OPUFGF
PRAIRIE TO PINES WEATHER ROUNDUP
NATIONAL WEATHER SERVICE EASTERN NORTH DAKOTA/GRAND FORKS ND
1100 AM CDT SUN MAY 03 2015

 **SATELLITE DATA USED TO AUGMENT SKY COVER AT AUTOMATED STATIONS**
 *****  WEATHER ACROSS EASTERN NORTH DAKOTA  *****

CITY           SKY/WX    TMP DP  RH WIND       PRES   REMARKS
GRAND FORKS    CLOUDY    57  38  48 NW17G23   29.89R
GRAND FORKS AF CLOUDY    57  35  44 NW17G25   29.90R
GRAND CITY NWS   N/A     55 N/A N/A NW14        N/A
BUXTON         NOT AVBL
DEVILS LAKE    PTSUNNY   57  27  30 NW20G29   29.92R
FARGO          PTSUNNY   62  39  42 N22G29    29.86S
WAHPETON ARPT  MOSUNNY   63  41  45 N21G30    29.85R
$$

 *****  WEATHER ACROSS CENTRAL AND WESTERN NORTH DAKOTA  *****

CITY           SKY/WX    TMP DP  RH WIND       PRES   REMARKS
JAMESTOWN      LGT RAIN  55  33  43 N29G37    29.89S
BISMARCK       CLOUDY    56  33  42 N12       29.99R
MINOT          SUNNY     57  27  31 NW20      29.97R
MINOT AFB      SUNNY     57  29  34 NW18      29.96R
GARRISON         N/A     58  31  35 N21       29.98S
WILLISTON      SUNNY     56  28  34 NW12      30.03R
DICKINSON      MOSUNNY   56  26  31 N10G17    30.00R
HETTINGER      CLOUDY    53  35  50 N12       30.00R
$$

 *****  OTHER OBSERVATIONS NORTHEAST NORTH DAKOTA  *****

CITY           SKY/WX    TMP DP  RH WIND       PRES   REMARKS
WALHALLA       FAIR      59  32  36 NW21G29   29.88R
LANGDON        FAIR      59  30  33 NW22G31   29.89R
CAVALIER       FAIR      61  32  33 NW20G25   29.87R
GRAFTON        FAIR      59  34  38 W15G22    29.88S
CANDO          FAIR      59  23  25 NW23G29   29.92R
FORT TOTTEN      N/A     57  36  45 NW9       29.95
ROLLA          NOT AVBL
RUGBY          NOT AVBL
 ***** THE ABOVE OBSERVATIONS ARE NON NWS ARE NOT QUALITY
        CONTROLLED AND MAY MIS-REPORT RAIN FOR SNOW...
$$

 *****  OTHER OBSERVATIONS SOUTHEAST NORTH DAKOTA *****

CITY           SKY/WX    TMP DP  RH WIND       PRES   REMARKS
COOPERSTOWN    NOT AVBL
VALLEY CITY    LGT RAIN  55  32  41 N23G32    29.89S
OAKES            N/A     63  39  42 N26       29.89R
GWINNER        SUNNY     64  39  39 N23G29    29.90R
BUFFALO        NOT AVBL
WYNDMERE       NOT AVBL
 ***** THE ABOVE OBSERVATIONS ARE NON NWS ARE NOT QUALITY
       CONTROLLED AND MAY MIS-REPORT RAIN FOR SNOW...
$$

  *****  WEATHER ACROSS NORTHERN MINNESOTA  *****

CITY           SKY/WX    TMP DP  RH WIND       PRES   REMARKS
FLAG ISLAND    SUNNY     54  41  62 NW13      29.77S
WARROAD        PTSUNNY   57  43  58 W12       29.80S
ROSEAU         PTSUNNY   57  43  58 W14G20    29.82R
HALLOCK        MOSUNNY   61  32  33 NW17G28   29.85R
THF RVR FALLS  CLOUDY    59  37  44 NW18      29.87R
HALSTAD        NOT AVBL
FOSSTON        NOT AVBL
BAUDETTE       PTSUNNY   58  39  49 NW13      29.80R
WASKISH        CLOUDY    57  48  72 SW12      29.81R
CROOKSTON      CLOUDY    57  39  51 NW21G26   29.89R
$$
  *****  WEATHER ACROSS CENTRAL AND WEST MINNESOTA  *****

CITY           SKY/WX    TMP DP  RH WIND       PRES   REMARKS
BEMIDJI        PTSUNNY   61  40  45 NW17      29.84R
PARK RAPIDS    PTSUNNY   70  36  28 N18G25    29.80R
WADENA         PTSUNNY   68  43  40 NW14G20   29.81R
DETROIT LAKES  CLOUDY    61  43  51 N16G24    29.87R
MOORHEAD       PTSUNNY   61  39  44 N22       29.87R
FERGUS FALLS   MOSUNNY   63  45  51 N21G36    29.84R
ELBOW LAKE     FAIR      68  42  38 N20G28    29.82R
MORRIS MN      MOSUNNY   72  54  53 N20       29.79S
STAPLES        CLOUDY    61  46  59 N5        29.81R
WHEATON        SUNNY     63  43  48 N22G28    29.86R
$$
  *****  WEATHER ELSEWHERE ACROSS MINNESOTA  *****

CITY           SKY/WX    TMP DP  RH WIND       PRES   REMARKS
DULUTH         MOSUNNY   74  51  44 NW10      29.74S
INTRNTL FALLS  PTSUNNY   64  38  38 NW15G23   29.76R
ELY            MOSUNNY   70  39  32 W9        29.73S
CLOQUET        MOSUNNY   73  48  40 W7        29.75R
BRAINERD       MOSUNNY   67  48  50 N9        29.79R
HIBBING        SUNNY     74  37  26 NW14      29.74S
ALEXANDRIA     MOSUNNY   68  49  50 N20G25    29.82R
SAINT CLOUD    PTSUNNY   64  54  69 NW8       29.80R
MINNEAPOLIS    PTSUNNY   71  55  56 VRB3      29.78R
$$

  *****  WEATHER ACROSS SOUTH DAKOTA  *****

CITY           SKY/WX    TMP DP  RH WIND       PRES   REMARKS
SIOUX FALLS    PTSUNNY   73  55  53 S12       29.75S
BROOKINGS      SUNNY     72  55  56 N12       29.77S
WATERTOWN      SUNNY     69  40  34 NE35G44   29.81R
HURON          SUNNY     73  40  30 N25G43    29.79R
SISSETON         N/A     68  40  35 N30G38    29.84R
ABERDEEN       MOSUNNY   67  37  33 N25G33    29.87R
MITCHELL       MOSUNNY   72  55  55 N14       29.77R
PIERRE         MOSUNNY   68  37  32 N31G37    29.87R
MOBRIDGE       PTSUNNY   62  37  39 N21G26    29.91R
RAPID CITY     SUNNY     60  38  43 N20G26    29.99R
$$

  *****  SOME WEATHER IN NEARBY STATES *****

CITY           SKY/WX    TMP DP  RH WIND       PRES   REMARKS
GLASGOW MT     CLOUDY    51  29  42 NW8       30.06R
GREAT FALLS MT SUNNY     49  27  42 NE7       30.02F
CHEYENNE WY    MOSUNNY   64  33  31 NW24G31   30.01R
SCOTTSBLUFF NE SUNNY     64  35  34 N15       29.94R
OMAHA NE       PTSUNNY   73  60  63 SW13      29.75S
DES MOINES IA  CLOUDY    75  58  55 S14       29.81S
DAVENPORT IA   CLOUDY    70  52  52 S15       29.90F
CHICAGO IL     PTSUNNY   72  45  37 SW12G22   29.97S
EAU CLAIRE WI  MOSUNNY   70  51  51 SW7       29.80R
LA CROSSE WI   CLOUDY    71  50  47 S10       29.83R
$$

  *****  SOME NATIONAL WEATHER *****

CITY           SKY/WX    TMP DP  RH WIND       PRES   REMARKS
LA GUARDIA NY  MOSUNNY   71  39  31 CALM      30.08F
RALEIGH NC     MOSUNNY   75  53  46 SW6       30.21S
ATLANTA GA     MOSUNNY   74  46  36 SW9       30.20R
NEW ORLEANS LA MOSUNNY   77  54  44 VRB3      30.13R
OKLAHOMA CITY  CLOUDY    71  58  63 S12       29.97R
ALBUQUERQUE NM PTSUNNY   67  37  33 W3        30.08S
SALT LAKE CITY PTSUNNY   71  38  29 SE9       29.90S
LOS ANGELES CA PTSUNNY   62  55  77 W8        29.93R
BOISE ID       MOSUNNY   58  34  40 W5        29.90R
SEATTLE WA     SUNNY     53  43  68 NE6       30.02S
$$

*** WEATHER ACROSS MANITOBA...SASKATCHEWAN AND ONTARIO ***
                ***ONTARIO***

CITY           SKY/WX    TMP DP  RH WIND       PRES   REMARKS
GERALDTON      LGT RAIN  55  50  82 S6        29.65F
THUNDER BAY    PTSUNNY   64  48  55 VRB5      29.67F
SIOUX LOOKOUT  MOSUNNY   57  41  54 NW16G23   29.70R
TORONTO        MOSUNNY   70  46  43 SE10      30.04S
BIG TROUT LK   CLOUDY    39  34  81 NW14G20   29.63R
PICKLE LAKE    PTSUNNY   54  39  58 NW12G17   29.64R
DRYDEN         SUNNY     59  39  47 NW9       29.72R
KENORA         PTSUNNY   57  37  47 NW7       29.77R
$$
                *** MANITOBA***

CITY           SKY/WX    TMP DP  RH WIND       PRES   REMARKS
BRANDON        MOSUNNY   55  36  47 NW24G33   29.90R
DAUPHIN        PTSUNNY   50  41  71 NW10G21   29.86R
ISLAND LAKE    CLOUDY    37  34  87 N7        29.74R
PILOT MOUND      N/A     55  32  41 NW23G33     N/A
THE PAS        CLOUDY    39  34  81 N8        29.86R
THOMPSON       CLOUDY    32  27  80 N6        29.83R
WINNIPEG       MOSUNNY   57  37  47 W24G31    29.83R
LYNN LAKE      MOSUNNY   32  27  80 N6        29.86S
CHURCHILL      CLOUDY    23  21  93 N17       29.83R WCI   9
GILLAM         CLOUDY    27  23  86 N15       29.81R WCI  15
$$
                ***SASKATCHEWAN***

CITY           SKY/WX    TMP DP  RH WIND       PRES   REMARKS
ESTEVAN        MOSUNNY   52  34  50 W17G24    30.00R
KINDERSLEY     MOSUNNY   46  34  61 W7        30.05S
LLOYDMINSTER   PTSUNNY   43  37  81 NW7       30.03R
PRINCE ALBERT  MOSUNNY   48  36  61 NW12G20   29.96S
REGINA         MOSUNNY   48  37  66 NW15G25   30.00R
YORKTON        MOSUNNY   50  37  62 NW20G26   29.91R


USA.gov is the U.S. government's official web portal to all federal, state and local government web resources and services.